Year,Month,Day,Hour,Minute,Value (Times are PST for insolation in W/m^2)
2015,12,19,00,00,0.00
2015,12,19,00,01,0.00
2015,12,19,00,02,0.00
2015,12,19,00,03,0.00
2015,12,19,00,04,0.00
2015,12,19,00,05,0.00
2015,12,19,00,06,0.00
2015,12,19,00,07,0.00
2015,12,19,00,08,0.00
2015,12,19,00,09,0.00
2015,12,19,00,10,0.00
2015,12,19,00,11,0.00
2015,12,19,00,12,0.00
2015,12,19,00,13,0.00
2015,12,19,00,14,0.00
2015,12,19,00,15,0.00
2015,12,19,00,16,0.00
2015,12,19,00,17,0.00
2015,12,19,00,18,0.00
2015,12,19,00,19,0.00
2015,12,19,00,20,0.00
2015,12,19,00,21,0.00
2015,12,19,00,22,0.00
2015,12,19,00,23,0.00
2015,12,19,00,24,0.00
2015,12,19,00,25,0.00
2015,12,19,00,26,0.00
2015,12,19,00,27,0.00
2015,12,19,00,28,0.00
2015,12,19,00,29,0.00
2015,12,19,00,30,0.00
2015,12,19,00,31,0.00
2015,12,19,00,32,0.00
2015,12,19,00,33,0.00
2015,12,19,00,34,0.00
2015,12,19,00,35,0.00
2015,12,19,00,36,0.00
2015,12,19,00,37,0.00
2015,12,19,00,38,0.00
2015,12,19,00,39,0.00
2015,12,19,00,40,0.00
2015,12,19,00,41,0.00
2015,12,19,00,42,0.00
2015,12,19,00,43,0.00
2015,12,19,00,44,0.00
2015,12,19,00,45,0.00
2015,12,19,00,46,0.00
2015,12,19,00,47,0.00
2015,12,19,00,48,0.00
2015,12,19,00,49,0.00
2015,12,19,00,50,0.00
2015,12,19,00,51,0.00
2015,12,19,00,52,0.00
2015,12,19,00,53,0.00
2015,12,19,00,54,0.00
2015,12,19,00,55,0.00
2015,12,19,00,56,0.00
2015,12,19,00,57,0.00
2015,12,19,00,58,0.00
2015,12,19,00,59,0.00
2015,12,19,01,00,0.00
2015,12,19,01,01,0.00
2015,12,19,01,02,0.00
2015,12,19,01,03,0.00
2015,12,19,01,04,0.00
2015,12,19,01,05,0.00
2015,12,19,01,06,0.00
2015,12,19,01,07,0.00
2015,12,19,01,08,0.00
2015,12,19,01,09,0.00
2015,12,19,01,10,0.00
2015,12,19,01,11,0.00
2015,12,19,01,12,0.00
2015,12,19,01,13,0.00
2015,12,19,01,14,0.00
2015,12,19,01,15,0.00
2015,12,19,01,16,0.00
2015,12,19,01,17,0.00
2015,12,19,01,18,0.00
2015,12,19,01,19,0.00
2015,12,19,01,20,0.00
2015,12,19,01,21,0.00
2015,12,19,01,22,0.00
2015,12,19,01,23,0.00
2015,12,19,01,24,0.00
2015,12,19,01,25,0.00
2015,12,19,01,26,0.00
2015,12,19,01,27,0.00
2015,12,19,01,28,0.00
2015,12,19,01,29,0.00
2015,12,19,01,30,0.00
2015,12,19,01,31,0.00
2015,12,19,01,32,0.00
2015,12,19,01,33,0.00
2015,12,19,01,34,0.00
2015,12,19,01,35,0.00
2015,12,19,01,36,0.00
2015,12,19,01,37,0.00
2015,12,19,01,38,0.00
2015,12,19,01,39,0.00
2015,12,19,01,40,0.00
2015,12,19,01,41,0.00
2015,12,19,01,42,0.00
2015,12,19,01,43,0.00
2015,12,19,01,44,0.00
2015,12,19,01,45,0.00
2015,12,19,01,46,0.00
2015,12,19,01,47,0.00
2015,12,19,01,48,0.00
2015,12,19,01,49,0.00
2015,12,19,01,50,0.00
2015,12,19,01,51,0.00
2015,12,19,01,52,0.00
2015,12,19,01,53,0.00
2015,12,19,01,54,0.00
2015,12,19,01,55,0.00
2015,12,19,01,56,0.00
2015,12,19,01,57,0.00
2015,12,19,01,58,0.00
2015,12,19,01,59,0.00
2015,12,19,02,00,0.00
2015,12,19,02,01,0.00
2015,12,19,02,02,0.00
2015,12,19,02,03,0.00
2015,12,19,02,04,0.00
2015,12,19,02,05,0.00
2015,12,19,02,06,0.00
2015,12,19,02,07,0.00
2015,12,19,02,08,0.00
2015,12,19,02,09,0.00
2015,12,19,02,10,0.00
2015,12,19,02,11,0.00
2015,12,19,02,12,0.00
2015,12,19,02,13,0.00
2015,12,19,02,14,0.00
2015,12,19,02,15,0.00
2015,12,19,02,16,0.00
2015,12,19,02,17,0.00
2015,12,19,02,18,0.00
2015,12,19,02,19,0.00
2015,12,19,02,20,0.00
2015,12,19,02,21,0.00
2015,12,19,02,22,0.00
2015,12,19,02,23,0.00
2015,12,19,02,24,0.00
2015,12,19,02,25,0.00
2015,12,19,02,26,0.00
2015,12,19,02,27,0.00
2015,12,19,02,28,0.00
2015,12,19,02,29,0.00
2015,12,19,02,30,0.00
2015,12,19,02,31,0.00
2015,12,19,02,32,0.00
2015,12,19,02,33,0.00
2015,12,19,02,34,0.00
2015,12,19,02,35,0.00
2015,12,19,02,36,0.00
2015,12,19,02,37,0.00
2015,12,19,02,38,0.00
2015,12,19,02,39,0.00
2015,12,19,02,40,0.00
2015,12,19,02,41,0.00
2015,12,19,02,42,0.00
2015,12,19,02,43,0.00
2015,12,19,02,44,0.00
2015,12,19,02,45,0.00
2015,12,19,02,46,0.00
2015,12,19,02,47,0.00
2015,12,19,02,48,0.00
2015,12,19,02,49,0.00
2015,12,19,02,50,0.00
2015,12,19,02,51,0.00
2015,12,19,02,52,0.00
2015,12,19,02,53,0.00
2015,12,19,02,54,0.00
2015,12,19,02,55,0.00
2015,12,19,02,56,0.00
2015,12,19,02,57,0.00
2015,12,19,02,58,0.00
2015,12,19,02,59,0.00
2015,12,19,03,00,0.00
2015,12,19,03,01,0.00
2015,12,19,03,02,0.00
2015,12,19,03,03,0.00
2015,12,19,03,04,0.00
2015,12,19,03,05,0.00
2015,12,19,03,06,0.00
2015,12,19,03,07,0.00
2015,12,19,03,08,0.00
2015,12,19,03,09,0.00
2015,12,19,03,10,0.00
2015,12,19,03,11,0.00
2015,12,19,03,12,0.00
2015,12,19,03,13,0.00
2015,12,19,03,14,0.00
2015,12,19,03,15,0.00
2015,12,19,03,16,0.00
2015,12,19,03,17,0.00
2015,12,19,03,18,0.00
2015,12,19,03,19,0.00
2015,12,19,03,20,0.00
2015,12,19,03,21,0.00
2015,12,19,03,22,0.00
2015,12,19,03,23,0.00
2015,12,19,03,24,0.00
2015,12,19,03,25,0.00
2015,12,19,03,26,0.00
2015,12,19,03,27,0.00
2015,12,19,03,28,0.00
2015,12,19,03,29,0.00
2015,12,19,03,30,0.00
2015,12,19,03,31,0.00
2015,12,19,03,32,0.00
2015,12,19,03,33,0.00
2015,12,19,03,34,0.00
2015,12,19,03,35,0.00
2015,12,19,03,36,0.00
2015,12,19,03,37,0.00
2015,12,19,03,38,0.00
2015,12,19,03,39,0.00
2015,12,19,03,40,0.00
2015,12,19,03,41,0.00
2015,12,19,03,42,0.00
2015,12,19,03,43,0.00
2015,12,19,03,44,0.00
2015,12,19,03,45,0.00
2015,12,19,03,46,0.00
2015,12,19,03,47,0.00
2015,12,19,03,48,0.00
2015,12,19,03,49,0.00
2015,12,19,03,50,0.00
2015,12,19,03,51,0.00
2015,12,19,03,52,0.00
2015,12,19,03,53,0.00
2015,12,19,03,54,0.00
2015,12,19,03,55,0.00
2015,12,19,03,56,0.00
2015,12,19,03,57,0.00
2015,12,19,03,58,0.00
2015,12,19,03,59,0.00
2015,12,19,04,00,0.00
2015,12,19,04,01,0.00
2015,12,19,04,02,0.00
2015,12,19,04,03,0.00
2015,12,19,04,04,0.00
2015,12,19,04,05,0.00
2015,12,19,04,06,0.00
2015,12,19,04,07,0.00
2015,12,19,04,08,0.00
2015,12,19,04,09,0.00
2015,12,19,04,10,0.00
2015,12,19,04,11,0.00
2015,12,19,04,12,0.00
2015,12,19,04,13,0.00
2015,12,19,04,14,0.00
2015,12,19,04,15,0.00
2015,12,19,04,16,0.00
2015,12,19,04,17,0.00
2015,12,19,04,18,0.00
2015,12,19,04,19,0.00
2015,12,19,04,20,0.00
2015,12,19,04,21,0.00
2015,12,19,04,22,0.00
2015,12,19,04,23,0.00
2015,12,19,04,24,0.00
2015,12,19,04,25,0.00
2015,12,19,04,26,0.00
2015,12,19,04,27,0.00
2015,12,19,04,28,0.00
2015,12,19,04,29,0.00
2015,12,19,04,30,0.00
2015,12,19,04,31,0.00
2015,12,19,04,32,0.00
2015,12,19,04,33,0.00
2015,12,19,04,34,0.00
2015,12,19,04,35,0.00
2015,12,19,04,36,0.00
2015,12,19,04,37,0.00
2015,12,19,04,38,0.00
2015,12,19,04,39,0.00
2015,12,19,04,40,0.00
2015,12,19,04,41,0.00
2015,12,19,04,42,0.00
2015,12,19,04,43,0.00
2015,12,19,04,44,0.00
2015,12,19,04,45,0.00
2015,12,19,04,46,0.00
2015,12,19,04,47,0.00
2015,12,19,04,48,0.00
2015,12,19,04,49,0.00
2015,12,19,04,50,0.00
2015,12,19,04,51,0.00
2015,12,19,04,52,0.00
2015,12,19,04,53,0.00
2015,12,19,04,54,0.00
2015,12,19,04,55,0.00
2015,12,19,04,56,0.00
2015,12,19,04,57,0.00
2015,12,19,04,58,0.00
2015,12,19,04,59,0.00
2015,12,19,05,00,0.00
2015,12,19,05,01,0.00
2015,12,19,05,02,0.00
2015,12,19,05,03,0.00
2015,12,19,05,04,0.00
2015,12,19,05,05,0.00
2015,12,19,05,06,0.00
2015,12,19,05,07,0.00
2015,12,19,05,08,0.00
2015,12,19,05,09,0.00
2015,12,19,05,10,0.00
2015,12,19,05,11,0.00
2015,12,19,05,12,0.00
2015,12,19,05,13,0.00
2015,12,19,05,14,0.00
2015,12,19,05,15,0.00
2015,12,19,05,16,0.00
2015,12,19,05,17,0.00
2015,12,19,05,18,0.00
2015,12,19,05,19,0.00
2015,12,19,05,20,0.00
2015,12,19,05,21,0.00
2015,12,19,05,22,0.00
2015,12,19,05,23,0.00
2015,12,19,05,24,0.00
2015,12,19,05,25,0.00
2015,12,19,05,26,0.00
2015,12,19,05,27,0.00
2015,12,19,05,28,0.00
2015,12,19,05,29,0.00
2015,12,19,05,30,0.00
2015,12,19,05,31,0.00
2015,12,19,05,32,0.00
2015,12,19,05,33,0.00
2015,12,19,05,34,0.00
2015,12,19,05,35,0.00
2015,12,19,05,36,0.00
2015,12,19,05,37,0.00
2015,12,19,05,38,0.00
2015,12,19,05,39,0.00
2015,12,19,05,40,0.00
2015,12,19,05,41,0.00
2015,12,19,05,42,0.00
2015,12,19,05,43,0.00
2015,12,19,05,44,0.00
2015,12,19,05,45,0.00
2015,12,19,05,46,0.00
2015,12,19,05,47,0.00
2015,12,19,05,48,0.00
2015,12,19,05,49,0.00
2015,12,19,05,50,0.00
2015,12,19,05,51,0.00
2015,12,19,05,52,0.00
2015,12,19,05,53,0.00
2015,12,19,05,54,0.00
2015,12,19,05,55,0.00
2015,12,19,05,56,0.00
2015,12,19,05,57,0.00
2015,12,19,05,58,0.00
2015,12,19,05,59,0.00
2015,12,19,06,00,0.00
2015,12,19,06,01,0.00
2015,12,19,06,02,0.00
2015,12,19,06,03,0.00
2015,12,19,06,04,0.00
2015,12,19,06,05,0.00
2015,12,19,06,06,0.00
2015,12,19,06,07,0.00
2015,12,19,06,08,0.00
2015,12,19,06,09,0.00
2015,12,19,06,10,0.00
2015,12,19,06,11,0.00
2015,12,19,06,12,0.00
2015,12,19,06,13,0.00
2015,12,19,06,14,0.00
2015,12,19,06,15,0.00
2015,12,19,06,16,0.00
2015,12,19,06,17,0.00
2015,12,19,06,18,0.00
2015,12,19,06,19,0.00
2015,12,19,06,20,0.00
2015,12,19,06,21,0.00
2015,12,19,06,22,0.00
2015,12,19,06,23,0.00
2015,12,19,06,24,0.00
2015,12,19,06,25,0.00
2015,12,19,06,26,0.00
2015,12,19,06,27,0.00
2015,12,19,06,28,0.00
2015,12,19,06,29,0.00
2015,12,19,06,30,0.00
2015,12,19,06,31,0.00
2015,12,19,06,32,0.00
2015,12,19,06,33,0.00
2015,12,19,06,34,0.00
2015,12,19,06,35,0.00
2015,12,19,06,36,0.00
2015,12,19,06,37,0.00
2015,12,19,06,38,0.00
2015,12,19,06,39,0.00
2015,12,19,06,40,0.00
2015,12,19,06,41,0.00
2015,12,19,06,42,0.00
2015,12,19,06,43,0.00
2015,12,19,06,44,0.00
2015,12,19,06,45,0.00
2015,12,19,06,46,0.00
2015,12,19,06,47,0.00
2015,12,19,06,48,0.00
2015,12,19,06,49,0.00
2015,12,19,06,50,0.00
2015,12,19,06,51,0.00
2015,12,19,06,52,0.00
2015,12,19,06,53,0.00
2015,12,19,06,54,0.00
2015,12,19,06,55,0.00
2015,12,19,06,56,0.00
2015,12,19,06,57,0.00
2015,12,19,06,58,0.00
2015,12,19,06,59,0.00
2015,12,19,07,00,0.00
2015,12,19,07,01,0.00
2015,12,19,07,02,0.00
2015,12,19,07,03,0.00
2015,12,19,07,04,0.00
2015,12,19,07,05,0.00
2015,12,19,07,06,0.00
2015,12,19,07,07,0.00
2015,12,19,07,08,0.00
2015,12,19,07,09,0.00
2015,12,19,07,10,0.00
2015,12,19,07,11,0.00
2015,12,19,07,12,0.00
2015,12,19,07,13,0.00
2015,12,19,07,14,0.00
2015,12,19,07,15,0.00
2015,12,19,07,16,0.00
2015,12,19,07,17,0.00
2015,12,19,07,18,0.00
2015,12,19,07,19,0.00
2015,12,19,07,20,0.00
2015,12,19,07,21,0.00
2015,12,19,07,22,0.00
2015,12,19,07,23,0.00
2015,12,19,07,24,0.00
2015,12,19,07,25,0.00
2015,12,19,07,26,0.00
2015,12,19,07,27,0.00
2015,12,19,07,28,0.00
2015,12,19,07,29,0.00
2015,12,19,07,30,0.00
2015,12,19,07,31,0.00
2015,12,19,07,32,0.00
2015,12,19,07,33,0.00
2015,12,19,07,34,0.00
2015,12,19,07,35,0.00
2015,12,19,07,36,0.00
2015,12,19,07,37,0.00
2015,12,19,07,38,0.00
2015,12,19,07,39,0.00
2015,12,19,07,40,0.00
2015,12,19,07,41,0.00
2015,12,19,07,42,0.00
2015,12,19,07,43,0.00
2015,12,19,07,44,0.00
2015,12,19,07,45,0.00
2015,12,19,07,46,0.00
2015,12,19,07,47,0.00
2015,12,19,07,48,0.00
2015,12,19,07,49,0.00
2015,12,19,07,50,0.00
2015,12,19,07,51,0.00
2015,12,19,07,52,0.00
2015,12,19,07,53,0.00
2015,12,19,07,54,0.00
2015,12,19,07,55,0.00
2015,12,19,07,56,0.00
2015,12,19,07,57,0.00
2015,12,19,07,58,0.00
2015,12,19,07,59,0.00
2015,12,19,08,00,0.00
2015,12,19,08,01,0.00
2015,12,19,08,02,0.00
2015,12,19,08,03,2.90
2015,12,19,08,04,5.00
2015,12,19,08,05,5.00
2015,12,19,08,06,5.00
2015,12,19,08,07,7.00
2015,12,19,08,08,7.00
2015,12,19,08,09,7.00
2015,12,19,08,10,7.00
2015,12,19,08,11,8.00
2015,12,19,08,12,9.00
2015,12,19,08,13,9.00
2015,12,19,08,14,10.60
2015,12,19,08,15,11.00
2015,12,19,08,16,11.00
2015,12,19,08,17,11.00
2015,12,19,08,18,11.00
2015,12,19,08,19,11.40
2015,12,19,08,20,12.00
2015,12,19,08,21,12.00
2015,12,19,08,22,12.00
2015,12,19,08,23,12.00
2015,12,19,08,24,12.00
2015,12,19,08,25,12.40
2015,12,19,08,26,14.00
2015,12,19,08,27,14.00
2015,12,19,08,28,14.00
2015,12,19,08,29,15.20
2015,12,19,08,30,16.00
2015,12,19,08,31,16.00
2015,12,19,08,32,17.80
2015,12,19,08,33,18.10
2015,12,19,08,34,19.00
2015,12,19,08,35,19.60
2015,12,19,08,36,21.80
2015,12,19,08,37,24.00
2015,12,19,08,38,25.60
2015,12,19,08,39,27.40
2015,12,19,08,40,29.60
2015,12,19,08,41,32.80
2015,12,19,08,42,35.80
2015,12,19,08,43,40.00
2015,12,19,08,44,43.20
2015,12,19,08,45,50.80
2015,12,19,08,46,53.50
2015,12,19,08,47,49.30
2015,12,19,08,48,48.60
2015,12,19,08,49,61.60
2015,12,19,08,50,57.50
2015,12,19,08,51,48.60
2015,12,19,08,52,46.10
2015,12,19,08,53,44.00
2015,12,19,08,54,42.00
2015,12,19,08,55,38.10
2015,12,19,08,56,34.00
2015,12,19,08,57,33.00
2015,12,19,08,58,34.90
2015,12,19,08,59,32.90
2015,12,19,09,00,32.00
2015,12,19,09,01,32.30
2015,12,19,09,02,33.00
2015,12,19,09,03,34.00
2015,12,19,09,04,36.30
2015,12,19,09,05,39.30
2015,12,19,09,06,41.70
2015,12,19,09,07,44.10
2015,12,19,09,08,46.20
2015,12,19,09,09,47.00
2015,12,19,09,10,47.70
2015,12,19,09,11,49.00
2015,12,19,09,12,50.20
2015,12,19,09,13,52.30
2015,12,19,09,14,53.80
2015,12,19,09,15,57.60
2015,12,19,09,16,63.40
2015,12,19,09,17,85.00
2015,12,19,09,18,115.30
2015,12,19,09,19,104.70
2015,12,19,09,20,87.40
2015,12,19,09,21,137.10
2015,12,19,09,22,159.10
2015,12,19,09,23,162.20
2015,12,19,09,24,154.50
2015,12,19,09,25,138.10
2015,12,19,09,26,139.80
2015,12,19,09,27,118.20
2015,12,19,09,28,103.10
2015,12,19,09,29,140.50
2015,12,19,09,30,151.30
2015,12,19,09,31,167.40
2015,12,19,09,32,171.30
2015,12,19,09,33,170.20
2015,12,19,09,34,154.60
2015,12,19,09,35,106.30
2015,12,19,09,36,70.90
2015,12,19,09,37,77.20
2015,12,19,09,38,73.80
2015,12,19,09,39,106.80
2015,12,19,09,40,73.60
2015,12,19,09,41,64.70
2015,12,19,09,42,79.70
2015,12,19,09,43,83.80
2015,12,19,09,44,84.60
2015,12,19,09,45,88.90
2015,12,19,09,46,88.90
2015,12,19,09,47,83.80
2015,12,19,09,48,78.00
2015,12,19,09,49,76.20
2015,12,19,09,50,73.90
2015,12,19,09,51,72.30
2015,12,19,09,52,74.00
2015,12,19,09,53,74.00
2015,12,19,09,54,75.00
2015,12,19,09,55,76.60
2015,12,19,09,56,81.00
2015,12,19,09,57,85.40
2015,12,19,09,58,92.30
2015,12,19,09,59,100.70
2015,12,19,10,00,108.40
2015,12,19,10,01,114.60
2015,12,19,10,02,120.00
2015,12,19,10,03,123.00
2015,12,19,10,04,121.10
2015,12,19,10,05,117.00
2015,12,19,10,06,129.60
2015,12,19,10,07,149.20
2015,12,19,10,08,144.00
2015,12,19,10,09,199.80
2015,12,19,10,10,218.40
2015,12,19,10,11,178.60
2015,12,19,10,12,139.00
2015,12,19,10,13,139.00
2015,12,19,10,14,132.10
2015,12,19,10,15,128.20
2015,12,19,10,16,130.10
2015,12,19,10,17,134.00
2015,12,19,10,18,134.00
2015,12,19,10,19,160.40
2015,12,19,10,20,168.50
2015,12,19,10,21,131.00
2015,12,19,10,22,122.70
2015,12,19,10,23,118.60
2015,12,19,10,24,114.20
2015,12,19,10,25,111.40
2015,12,19,10,26,116.30
2015,12,19,10,27,126.50
2015,12,19,10,28,125.70
2015,12,19,10,29,120.00
2015,12,19,10,30,120.00
2015,12,19,10,31,123.60
2015,12,19,10,32,121.00
2015,12,19,10,33,122.90
2015,12,19,10,34,121.00
2015,12,19,10,35,121.00
2015,12,19,10,36,120.70
2015,12,19,10,37,122.40
2015,12,19,10,38,120.80
2015,12,19,10,39,118.00
2015,12,19,10,40,114.80
2015,12,19,10,41,109.50
2015,12,19,10,42,102.30
2015,12,19,10,43,105.00
2015,12,19,10,44,109.70
2015,12,19,10,45,112.30
2015,12,19,10,46,118.50
2015,12,19,10,47,125.50
2015,12,19,10,48,122.50
2015,12,19,10,49,118.40
2015,12,19,10,50,114.30
2015,12,19,10,51,114.70
2015,12,19,10,52,107.50
2015,12,19,10,53,112.30
2015,12,19,10,54,117.10
2015,12,19,10,55,118.20
2015,12,19,10,56,114.00
2015,12,19,10,57,98.20
2015,12,19,10,58,79.70
2015,12,19,10,59,76.20
2015,12,19,11,00,68.60
2015,12,19,11,01,69.60
2015,12,19,11,02,79.70
2015,12,19,11,03,87.50
2015,12,19,11,04,90.40
2015,12,19,11,05,87.00
2015,12,19,11,06,82.00
2015,12,19,11,07,80.90
2015,12,19,11,08,79.20
2015,12,19,11,09,80.60
2015,12,19,11,10,79.70
2015,12,19,11,11,84.20
2015,12,19,11,12,85.80
2015,12,19,11,13,82.10
2015,12,19,11,14,82.60
2015,12,19,11,15,88.90
2015,12,19,11,16,96.80
2015,12,19,11,17,100.00
2015,12,19,11,18,99.10
2015,12,19,11,19,95.40
2015,12,19,11,20,89.50
2015,12,19,11,21,81.80
2015,12,19,11,22,75.60
2015,12,19,11,23,68.70
2015,12,19,11,24,67.00
2015,12,19,11,25,75.10
2015,12,19,11,26,90.10
2015,12,19,11,27,99.40
2015,12,19,11,28,104.40
2015,12,19,11,29,107.00
2015,12,19,11,30,109.00
2015,12,19,11,31,109.00
2015,12,19,11,32,119.20
2015,12,19,11,33,130.50
2015,12,19,11,34,148.60
2015,12,19,11,35,142.00
2015,12,19,11,36,126.50
2015,12,19,11,37,117.00
2015,12,19,11,38,113.40
2015,12,19,11,39,110.50
2015,12,19,11,40,105.00
2015,12,19,11,41,96.30
2015,12,19,11,42,88.10
2015,12,19,11,43,82.90
2015,12,19,11,44,81.00
2015,12,19,11,45,97.80
2015,12,19,11,46,109.00
2015,12,19,11,47,106.40
2015,12,19,11,48,107.00
2015,12,19,11,49,112.20
2015,12,19,11,50,113.10
2015,12,19,11,51,115.70
2015,12,19,11,52,112.80
2015,12,19,11,53,110.80
2015,12,19,11,54,118.10
2015,12,19,11,55,126.00
2015,12,19,11,56,128.00
2015,12,19,11,57,132.50
2015,12,19,11,58,140.90
2015,12,19,11,59,155.60
2015,12,19,12,00,182.60
2015,12,19,12,01,271.40
2015,12,19,12,02,299.20
2015,12,19,12,03,218.80
2015,12,19,12,04,164.60
2015,12,19,12,05,140.30
2015,12,19,12,06,124.20
2015,12,19,12,07,118.40
2015,12,19,12,08,119.40
2015,12,19,12,09,113.30
2015,12,19,12,10,111.60
2015,12,19,12,11,113.40
2015,12,19,12,12,112.30
2015,12,19,12,13,101.90
2015,12,19,12,14,87.40
2015,12,19,12,15,76.00
2015,12,19,12,16,67.60
2015,12,19,12,17,65.30
2015,12,19,12,18,68.20
2015,12,19,12,19,78.70
2015,12,19,12,20,93.60
2015,12,19,12,21,97.00
2015,12,19,12,22,89.30
2015,12,19,12,23,83.80
2015,12,19,12,24,81.30
2015,12,19,12,25,88.70
2015,12,19,12,26,97.10
2015,12,19,12,27,109.50
2015,12,19,12,28,121.30
2015,12,19,12,29,124.00
2015,12,19,12,30,123.80
2015,12,19,12,31,124.40
2015,12,19,12,32,123.40
2015,12,19,12,33,119.90
2015,12,19,12,34,110.70
2015,12,19,12,35,107.90
2015,12,19,12,36,106.10
2015,12,19,12,37,109.40
2015,12,19,12,38,105.40
2015,12,19,12,39,101.60
2015,12,19,12,40,98.50
2015,12,19,12,41,98.00
2015,12,19,12,42,98.10
2015,12,19,12,43,99.60
2015,12,19,12,44,95.90
2015,12,19,12,45,95.60
2015,12,19,12,46,107.30
2015,12,19,12,47,112.20
2015,12,19,12,48,113.00
2015,12,19,12,49,115.40
2015,12,19,12,50,108.30
2015,12,19,12,51,103.80
2015,12,19,12,52,98.80
2015,12,19,12,53,94.40
2015,12,19,12,54,94.60
2015,12,19,12,55,103.00
2015,12,19,12,56,117.40
2015,12,19,12,57,121.60
2015,12,19,12,58,124.20
2015,12,19,12,59,124.90
2015,12,19,13,00,122.70
2015,12,19,13,01,121.50
2015,12,19,13,02,123.00
2015,12,19,13,03,124.80
2015,12,19,13,04,127.60
2015,12,19,13,05,125.90
2015,12,19,13,06,125.00
2015,12,19,13,07,120.70
2015,12,19,13,08,108.90
2015,12,19,13,09,102.60
2015,12,19,13,10,107.00
2015,12,19,13,11,112.20
2015,12,19,13,12,112.50
2015,12,19,13,13,113.40
2015,12,19,13,14,113.70
2015,12,19,13,15,113.20
2015,12,19,13,16,113.90
2015,12,19,13,17,117.40
2015,12,19,13,18,113.80
2015,12,19,13,19,113.90
2015,12,19,13,20,117.70
2015,12,19,13,21,120.60
2015,12,19,13,22,123.60
2015,12,19,13,23,125.00
2015,12,19,13,24,123.30
2015,12,19,13,25,121.10
2015,12,19,13,26,120.60
2015,12,19,13,27,122.40
2015,12,19,13,28,119.90
2015,12,19,13,29,115.50
2015,12,19,13,30,110.70
2015,12,19,13,31,106.20
2015,12,19,13,32,98.90
2015,12,19,13,33,87.70
2015,12,19,13,34,88.70
2015,12,19,13,35,96.20
2015,12,19,13,36,100.60
2015,12,19,13,37,102.00
2015,12,19,13,38,104.50
2015,12,19,13,39,109.50
2015,12,19,13,40,111.00
2015,12,19,13,41,111.00
2015,12,19,13,42,109.10
2015,12,19,13,43,109.30
2015,12,19,13,44,111.50
2015,12,19,13,45,112.30
2015,12,19,13,46,105.20
2015,12,19,13,47,88.70
2015,12,19,13,48,79.70
2015,12,19,13,49,91.00
2015,12,19,13,50,93.30
2015,12,19,13,51,85.50
2015,12,19,13,52,80.70
2015,12,19,13,53,79.00
2015,12,19,13,54,79.80
2015,12,19,13,55,82.50
2015,12,19,13,56,84.00
2015,12,19,13,57,84.00
2015,12,19,13,58,85.70
2015,12,19,13,59,83.00
2015,12,19,14,00,76.70
2015,12,19,14,01,71.60
2015,12,19,14,02,62.00
2015,12,19,14,03,62.40
2015,12,19,14,04,60.40
2015,12,19,14,05,58.00
2015,12,19,14,06,56.60
2015,12,19,14,07,50.00
2015,12,19,14,08,53.80
2015,12,19,14,09,56.80
2015,12,19,14,10,60.00
2015,12,19,14,11,58.50
2015,12,19,14,12,53.60
2015,12,19,14,13,48.00
2015,12,19,14,14,44.60
2015,12,19,14,15,40.80
2015,12,19,14,16,39.10
2015,12,19,14,17,39.00
2015,12,19,14,18,39.20
2015,12,19,14,19,40.60
2015,12,19,14,20,44.00
2015,12,19,14,21,49.00
2015,12,19,14,22,52.90
2015,12,19,14,23,56.80
2015,12,19,14,24,61.20
2015,12,19,14,25,63.00
2015,12,19,14,26,65.00
2015,12,19,14,27,65.00
2015,12,19,14,28,65.00
2015,12,19,14,29,66.80
2015,12,19,14,30,69.60
2015,12,19,14,31,71.30
2015,12,19,14,32,72.00
2015,12,19,14,33,72.00
2015,12,19,14,34,72.00
2015,12,19,14,35,71.60
2015,12,19,14,36,69.80
2015,12,19,14,37,67.40
2015,12,19,14,38,64.00
2015,12,19,14,39,62.40
2015,12,19,14,40,60.70
2015,12,19,14,41,58.40
2015,12,19,14,42,56.10
2015,12,19,14,43,53.90
2015,12,19,14,44,52.60
2015,12,19,14,45,50.40
2015,12,19,14,46,48.10
2015,12,19,14,47,45.30
2015,12,19,14,48,42.70
2015,12,19,14,49,39.90
2015,12,19,14,50,39.00
2015,12,19,14,51,35.20
2015,12,19,14,52,35.40
2015,12,19,14,53,37.60
2015,12,19,14,54,37.40
2015,12,19,14,55,35.00
2015,12,19,14,56,36.20
2015,12,19,14,57,38.40
2015,12,19,14,58,39.80
2015,12,19,14,59,41.80
2015,12,19,15,00,41.80
2015,12,19,15,01,39.80
2015,12,19,15,02,37.80
2015,12,19,15,03,34.20
2015,12,19,15,04,33.00
2015,12,19,15,05,32.40
2015,12,19,15,06,29.00
2015,12,19,15,07,28.00
2015,12,19,15,08,26.10
2015,12,19,15,09,25.00
2015,12,19,15,10,24.50
2015,12,19,15,11,23.00
2015,12,19,15,12,23.00
2015,12,19,15,13,21.80
2015,12,19,15,14,21.00
2015,12,19,15,15,21.00
2015,12,19,15,16,21.00
2015,12,19,15,17,21.00
2015,12,19,15,18,20.60
2015,12,19,15,19,19.00
2015,12,19,15,20,19.00
2015,12,19,15,21,18.50
2015,12,19,15,22,18.00
2015,12,19,15,23,18.00
2015,12,19,15,24,16.40
2015,12,19,15,25,16.00
2015,12,19,15,26,15.70
2015,12,19,15,27,14.00
2015,12,19,15,28,14.00
2015,12,19,15,29,14.00
2015,12,19,15,30,14.00
2015,12,19,15,31,14.00
2015,12,19,15,32,15.40
2015,12,19,15,33,16.00
2015,12,19,15,34,16.00
2015,12,19,15,35,15.60
2015,12,19,15,36,14.00
2015,12,19,15,37,14.00
2015,12,19,15,38,13.10
2015,12,19,15,39,12.00
2015,12,19,15,40,11.30
2015,12,19,15,41,11.00
2015,12,19,15,42,11.00
2015,12,19,15,43,11.00
2015,12,19,15,44,10.60
2015,12,19,15,45,9.00
2015,12,19,15,46,9.00
2015,12,19,15,47,7.90
2015,12,19,15,48,7.00
2015,12,19,15,49,7.00
2015,12,19,15,50,7.00
2015,12,19,15,51,7.00
2015,12,19,15,52,7.00
2015,12,19,15,53,7.00
2015,12,19,15,54,7.00
2015,12,19,15,55,7.00
2015,12,19,15,56,7.00
2015,12,19,15,57,7.00
2015,12,19,15,58,5.50
2015,12,19,15,59,5.00
2015,12,19,16,00,5.00
2015,12,19,16,01,5.00
2015,12,19,16,02,3.50
2015,12,19,16,03,0.00
2015,12,19,16,04,0.00
2015,12,19,16,05,0.00
2015,12,19,16,06,0.00
2015,12,19,16,07,0.00
2015,12,19,16,08,0.00
2015,12,19,16,09,0.00
2015,12,19,16,10,0.00
2015,12,19,16,11,0.00
2015,12,19,16,12,0.00
2015,12,19,16,13,0.00
2015,12,19,16,14,0.00
2015,12,19,16,15,0.00
2015,12,19,16,16,0.00
2015,12,19,16,17,0.00
2015,12,19,16,18,0.00
2015,12,19,16,19,0.00
2015,12,19,16,20,0.00
2015,12,19,16,21,0.00
2015,12,19,16,22,0.00
2015,12,19,16,23,0.00
2015,12,19,16,24,0.00
2015,12,19,16,25,0.00
2015,12,19,16,26,0.00
2015,12,19,16,27,0.00
2015,12,19,16,28,0.00
2015,12,19,16,29,0.00
2015,12,19,16,30,0.00
2015,12,19,16,31,0.00
2015,12,19,16,32,0.00
2015,12,19,16,33,0.00
2015,12,19,16,34,0.00
2015,12,19,16,35,0.00
2015,12,19,16,36,0.00
2015,12,19,16,37,0.00
2015,12,19,16,38,0.00
2015,12,19,16,39,0.00
2015,12,19,16,40,0.00
2015,12,19,16,41,0.00
2015,12,19,16,42,0.00
2015,12,19,16,43,0.00
2015,12,19,16,44,0.00
2015,12,19,16,45,0.00
2015,12,19,16,46,0.00
2015,12,19,16,47,0.00
2015,12,19,16,48,0.00
2015,12,19,16,49,0.00
2015,12,19,16,50,0.00
2015,12,19,16,51,0.00
2015,12,19,16,52,0.00
2015,12,19,16,53,0.00
2015,12,19,16,54,0.00
2015,12,19,16,55,0.00
2015,12,19,16,56,0.00
2015,12,19,16,57,0.00
2015,12,19,16,58,0.00
2015,12,19,16,59,0.00
2015,12,19,17,00,0.00
2015,12,19,17,01,0.00
2015,12,19,17,02,0.00
2015,12,19,17,03,0.00
2015,12,19,17,04,0.00
2015,12,19,17,05,0.00
2015,12,19,17,06,0.00
2015,12,19,17,07,0.00
2015,12,19,17,08,0.00
2015,12,19,17,09,0.00
2015,12,19,17,10,0.00
2015,12,19,17,11,0.00
2015,12,19,17,12,0.00
2015,12,19,17,13,0.00
2015,12,19,17,14,0.00
2015,12,19,17,15,0.00
2015,12,19,17,16,0.00
2015,12,19,17,17,0.00
2015,12,19,17,18,0.00
2015,12,19,17,19,0.00
2015,12,19,17,20,0.00
2015,12,19,17,21,0.00
2015,12,19,17,22,0.00
2015,12,19,17,23,0.00
2015,12,19,17,24,0.00
2015,12,19,17,25,0.00
2015,12,19,17,26,0.00
2015,12,19,17,27,0.00
2015,12,19,17,28,0.00
2015,12,19,17,29,0.00
2015,12,19,17,30,0.00
2015,12,19,17,31,0.00
2015,12,19,17,32,0.00
2015,12,19,17,33,0.00
2015,12,19,17,34,0.00
2015,12,19,17,35,0.00
2015,12,19,17,36,0.00
2015,12,19,17,37,0.00